This is the latest recevied weather packets stored in our database for station/object N0FDH. If no packets are shown the sender has not sent any weather packets the latest 10 day(s).
| Time | Temp. | Humidity | Pressure | Rain* | Wind** | Luminosity | Snow |
|---|---|---|---|---|---|---|---|
| 1777856505 | 16.67° C | 32% | 1003.3 hPa | 0 mm | - | 6 W/m² | - |
| 1777856203 | 16.67° C | 32% | 1003.2 hPa | 0 mm | - | 7 W/m² | - |
| 1777855899 | 17.22° C | 32% | 1003.4 hPa | 0 mm | - | 15 W/m² | - |
| 1777855598 | 17.22° C | 34% | 1003.5 hPa | 0 mm | - | 23 W/m² | - |
| 1777855294 | 17.78° C | 35% | 1003.5 hPa | 0 mm | - | 24 W/m² | - |
| 1777854990 | 17.78° C | 33% | 1003.6 hPa | 0 mm | - | 23 W/m² | - |
| 1777854687 | 17.78° C | 34% | 1003.6 hPa | 0 mm | - | 22 W/m² | - |
| 1777854384 | 17.78° C | 32% | 1003.8 hPa | 0 mm | - | 22 W/m² | - |
| 1777854081 | 17.78° C | 32% | 1003.7 hPa | 0 mm | - | 20 W/m² | - |
| 1777853779 | 18.33° C | 31% | 1003.8 hPa | 0 mm | - | 25 W/m² | - |
| 1777853475 | 18.33° C | 29% | 1004 hPa | 0 mm | - | 33 W/m² | - |
| 1777853173 | 18.33° C | 33% | 1004.1 hPa | 0 mm | - | 57 W/m² | - |
| 1777852870 | 17.78° C | 32% | 1003.9 hPa | 0 mm | - | 66 W/m² | - |
| 1777852568 | 17.78° C | 33% | 1003.9 hPa | 0 mm | - | 23 W/m² | - |
| 1777852264 | 18.33° C | 30% | 1003.8 hPa | 0 mm | - | 20 W/m² | - |
| 1777851962 | 18.89° C | 27% | 1004 hPa | 0 mm | - | 40 W/m² | - |
| 1777851660 | 18.89° C | 28% | 1004 hPa | 0 mm | - | 111 W/m² | - |
| 1777851357 | 18.89° C | 31% | 1003.9 hPa | 0 mm | - | 115 W/m² | - |
| 1777851052 | 18.89° C | 28% | 1004 hPa | 0 mm | - | 122 W/m² | - |
| 1777850750 | 18.89° C | 26% | 1003.8 hPa | 0 mm | - | 108 W/m² | - |
| 1777850447 | 18.89° C | 28% | 1004.1 hPa | 0 mm | - | 117 W/m² | - |
| 1777850145 | 18.89° C | 29% | 1004.1 hPa | 0 mm | - | 100 W/m² | - |
| 1777849841 | 18.89° C | 32% | 1004.1 hPa | 0 mm | - | 70 W/m² | - |
| 1777849538 | 18.89° C | 28% | 1004.1 hPa | 0 mm | - | 59 W/m² | - |
| 1777849236 | 18.89° C | 30% | 1004.2 hPa | 0 mm | - | 75 W/m² | - |
* Rain latest hour (hover to see other rain measurements)
** Current wind speed in m/s (hover to see current wind gust speed)